Change the Weather History Date:

Tuesday, October 2, 2012

  Actual Average Record
Temperature  
Mean Temperature 58 °F -  
Max Temperature 64 °F 67 °F 86 °F (1954)
Min Temperature 52 °F 46 °F 30 °F (1997)
Degree Days  
Heating Degree Days 7    
Growing Degree Days 8 (Base 50)    
Moisture  
Dew Point 56 °F    
Average Humidity 88    
Maximum Humidity 94    
Minimum Humidity 73    
Precipitation  
Precipitation 0.87 in - - ()
Sea Level Pressure  
Sea Level Pressure 30.03 in    
Wind  
Wind Speed 2 mph (ENE)    
Max Wind Speed 6 mph    
Max Gust Speed -    
Visibility 5 miles    
Events Rain    
Averages and records for this station are not official NWS values.
T = Trace of Precipitation, MM = Missing Value Source: NWS Daily Summary

Daily Weather History Graph

Daily Weather History Graph

Search for Another Location

Airport or City:

Trip Planner

Search our weather history database for the weather conditions in past years. The results will help you decide how hot, cold, wet, or windy it might be!

Date:

Astronomy

Oct. 02, 2012 Rise Set
Actual Time 6:52 AM EDT 6:33 PM EDT
Civil Twilight 6:24 AM EDT 7:00 PM EDT
Nautical Twilight 5:52 AM EDT 7:32 PM EDT
Astronomical Twilight 5:20 AM EDT 8:05 PM EDT
Moon 7:42 PM EDT (10/2) 9:18 AM EDT (10/2)
Length of Visible Light 12h 36m
Length of Day
11h 41m
Waning Gibbous, 94% of the Moon is Illuminated
Oct 2
Waning Gibbous
Oct 8
Last Quarter
Oct 15
New
Oct 21
First Quarter
Oct 29
Full

Hourly Weather History & Observations

Time (EDT) Temp. Dew Point Humidity Pressure Visibility Wind Dir Wind Speed Gust Speed Precip Events Conditions
12:53 AM 52.0 °F 48.9 °F 89% 29.99 in 10.0 mi Calm Calm - N/A   Clear
1:53 AM 52.0 °F 50.0 °F 93% 29.99 in 10.0 mi Calm Calm - N/A   Overcast
2:53 AM 54.0 °F 51.1 °F 90% 29.99 in 10.0 mi Calm Calm - N/A   Overcast
3:53 AM 55.0 °F 51.1 °F 86% 30.00 in 10.0 mi Calm Calm - N/A   Overcast
4:53 AM 55.0 °F 52.0 °F 89% 30.00 in 10.0 mi Calm Calm - N/A   Overcast
5:53 AM 55.9 °F 52.0 °F 87% 30.01 in 10.0 mi Calm Calm - N/A   Overcast
6:53 AM 55.9 °F 53.1 °F 90% 30.03 in 10.0 mi Calm Calm - N/A   Overcast
7:53 AM 57.0 °F 53.1 °F 87% 30.03 in 10.0 mi Calm Calm - N/A   Overcast
8:53 AM 59.0 °F 54.0 °F 83% 30.05 in 10.0 mi Calm Calm - N/A   Overcast
9:53 AM 61.0 °F 54.0 °F 78% 30.06 in 10.0 mi Calm Calm - N/A   Overcast
10:53 AM 64.0 °F 55.0 °F 73% 30.04 in 10.0 mi Variable 3.5 mph - N/A   Mostly Cloudy
11:09 AM 64.4 °F 55.4 °F 73% 30.04 in 10.0 mi ESE 3.5 mph - N/A   Mostly Cloudy
11:38 AM 64.4 °F 55.4 °F 73% 30.04 in 10.0 mi SE 3.5 mph - N/A   Overcast
11:53 AM 64.0 °F 57.0 °F 78% 30.04 in 2.5 mi Calm Calm - 0.03 in Rain Light Rain
12:02 PM 62.6 °F 57.2 °F 82% 30.04 in 5.0 mi East 3.5 mph - 0.01 in Rain Light Rain
12:53 PM 62.1 °F 57.9 °F 86% 30.06 in 5.0 mi North 3.5 mph - 0.04 in Rain Light Rain
1:53 PM 60.1 °F 55.9 °F 86% 30.05 in 3.0 mi ESE 4.6 mph - 0.18 in Rain Rain
2:08 PM 60.8 °F 55.4 °F 82% 30.05 in 2.5 mi NNE 3.5 mph - 0.04 in Rain Rain
2:53 PM 59.0 °F 55.9 °F 90% 30.03 in 4.0 mi Calm Calm - 0.25 in Rain Light Rain
3:53 PM 59.0 °F 57.0 °F 93% 30.03 in 4.0 mi NE 3.5 mph - 0.07 in Rain Light Rain
4:44 PM 60.8 °F 57.2 °F 88% 30.02 in 2.0 mi ENE 4.6 mph - 0.02 in Rain Light Rain
4:53 PM 59.0 °F 57.0 °F 93% 30.02 in 4.0 mi North 4.6 mph - 0.03 in Rain Light Rain
5:38 PM 59.0 °F 57.2 °F 94% 30.02 in 2.0 mi ENE 3.5 mph - 0.02 in Rain Rain
5:45 PM 59.0 °F 57.2 °F 94% 30.02 in 2.5 mi ENE 4.6 mph - 0.03 in Rain Light Rain
5:53 PM 59.0 °F 57.0 °F 93% 30.02 in 2.5 mi ENE 4.6 mph - 0.04 in Rain Light Rain
6:11 PM 59.0 °F 57.2 °F 94% 30.01 in 3.0 mi ENE 3.5 mph - 0.04 in Rain Rain
6:18 PM 59.0 °F 57.2 °F 94% 30.01 in 3.0 mi ENE 4.6 mph - 0.06 in Rain Rain
6:34 PM 60.8 °F 57.2 °F 88% 30.01 in 5.0 mi Calm Calm - 0.09 in Rain Light Rain
6:53 PM 60.1 °F 57.0 °F 90% 30.01 in 4.0 mi NE 3.5 mph - 0.14 in Rain Rain
7:32 PM 60.8 °F 57.2 °F 88% 30.02 in 2.5 mi NE 4.6 mph - 0.02 in Rain Light Rain
7:53 PM 59.0 °F 57.0 °F 93% 30.03 in 3.0 mi NE 5.8 mph - 0.05 in Rain Light Rain
8:14 PM 59.0 °F 57.2 °F 94% 30.03 in 2.5 mi ENE 4.6 mph - 0.01 in Rain Light Rain
8:19 PM 59.0 °F 57.2 °F 94% 30.03 in 3.0 mi ENE 3.5 mph - 0.01 in Rain Light Rain
8:31 PM 59.0 °F 57.2 °F 94% 30.03 in 4.0 mi NE 3.5 mph - 0.02 in Rain Light Rain
8:43 PM 59.0 °F 57.2 °F 94% 30.03 in 2.5 mi Calm Calm - 0.03 in Rain Light Rain
8:53 PM 60.1 °F 57.9 °F 93% 30.03 in 2.5 mi Calm Calm - 0.04 in Rain Light Rain
9:03 PM 60.8 °F 57.2 °F 88% 30.03 in 3.0 mi ENE 3.5 mph - 0.00 in Rain Light Rain
9:31 PM 59.0 °F 57.2 °F 94% 30.04 in 2.5 mi Calm Calm - 0.00 in Rain Light Rain
10:00 PM 59.0 °F 57.2 °F 94% 30.04 in 4.0 mi Calm Calm - N/A   Overcast
10:29 PM 60.8 °F 57.2 °F 88% 30.03 in 2.0 mi Calm Calm - 0.00 in   Overcast
10:53 PM 60.1 °F 57.9 °F 93% 30.03 in 1.8 mi NE 3.5 mph - 0.00 in   Overcast
11:09 PM 60.8 °F 57.2 °F 88% 30.04 in 1.5 mi Calm Calm - N/A   Overcast
11:53 PM 60.1 °F 57.9 °F 93% 30.03 in 1.5 mi Calm Calm - N/A   Overcast